Weather History for Alva, OK

Change the Weather History Date:

Wednesday, February 13, 2013

  Actual Average Record
Temperature  
Mean Temperature 32 °F -  
Max Temperature 44 °F 51 °F 77 °F (1962)
Min Temperature 19 °F 28 °F 3 °F (1948)
Degree Days  
Heating Degree Days 34    
Moisture  
Dew Point 26 °F    
Average Humidity 81    
Maximum Humidity 100    
Minimum Humidity 61    
Precipitation  
Precipitation 0.00 in - - ()
Sea Level Pressure  
Sea Level Pressure 30.00 in    
Wind  
Wind Speed 10 mph (WSW)    
Max Wind Speed 14 mph    
Max Gust Speed -    
Visibility 9 miles    
Events      
Averages and records for this station are not official NWS values.
T = Trace of Precipitation, MM = Missing Value Source: NWS Daily Summary

Daily Weather History Graph

Daily Weather History Graph

Search for Another Location

Airport:

Trip Planner

Search our weather history database for the weather conditions in past years. The results will help you decide how hot, cold, wet, or windy it might be!

Date:

Astronomy

Feb. 13, 2013 Rise Set
Actual Time 7:24 AM CST 6:13 PM CST
Civil Twilight 6:58 AM CST 6:39 PM CST
Nautical Twilight 6:27 AM CST 7:10 PM CST
Astronomical Twilight 5:57 AM CST 7:40 PM CST
Moon 9:02 AM CST (2/13) 10:09 PM CST (2/13)
Length of Visible Light 11h 41m
Length of Day
10h 48m
Waxing Crescent, 14% of the Moon is Illuminated
Feb 13
Waxing Crescent
Feb 17
First Quarter
Feb 25
Full
Mar 4
Last Quarter
Mar 11
New

Hourly Weather History & Observations

Time (CST) Temp. Windchill Dew Point Humidity Pressure Visibility Wind Dir Wind Speed Gust Speed Precip Events Conditions
12:10 AM 26.6 °F 16.8 °F 26.6 °F 100% 30.05 in 8.0 mi WSW 10.4 mph - N/A   Partly Cloudy
12:30 AM 24.8 °F 14.6 °F 24.8 °F 100% 30.05 in 7.0 mi WSW 10.4 mph - N/A   Partly Cloudy
12:50 AM 24.8 °F 14.0 °F 24.8 °F 100% 30.05 in 7.0 mi WSW 11.5 mph - N/A   Partly Cloudy
1:10 AM 24.8 °F 14.0 °F 24.8 °F 100% 30.05 in 9.0 mi WSW 11.5 mph - N/A   Partly Cloudy
1:30 AM 23.0 °F 12.4 °F 23.0 °F 100% 30.05 in 8.0 mi WSW 10.4 mph - N/A   Clear
1:50 AM 24.8 °F 16.9 °F 24.8 °F 100% 30.04 in 10.0 mi WSW 6.9 mph - N/A   Clear
2:10 AM 23.0 °F 15.8 °F 23.0 °F 100% 30.04 in 9.0 mi West 5.8 mph - N/A   Clear
2:30 AM 26.6 °F 17.5 °F 26.6 °F 100% 30.03 in 10.0 mi West 9.2 mph - N/A   Clear
2:50 AM 26.6 °F 19.1 °F 26.6 °F 100% 30.02 in 10.0 mi West 6.9 mph - N/A   Clear
3:10 AM 24.8 °F 16.1 °F 24.8 °F 100% 30.02 in 10.0 mi West 8.1 mph - N/A   Partly Cloudy
3:30 AM 24.8 °F 15.3 °F 23.0 °F 93% 30.01 in 10.0 mi West 9.2 mph - N/A   Partly Cloudy
3:50 AM 24.8 °F 15.3 °F 23.0 °F 93% 30.00 in 10.0 mi West 9.2 mph - N/A   Clear
4:10 AM 24.8 °F 15.3 °F 23.0 °F 93% 30.00 in 10.0 mi West 9.2 mph - N/A   Clear
4:30 AM 24.8 °F 14.6 °F 23.0 °F 93% 30.00 in 9.0 mi West 10.4 mph - N/A   Clear
4:50 AM 23.0 °F 13.9 °F 21.2 °F 93% 30.00 in 9.0 mi West 8.1 mph - N/A   Clear
5:10 AM 23.0 °F 13.1 °F 21.2 °F 93% 30.00 in 8.0 mi West 9.2 mph - N/A   Clear
5:30 AM 23.0 °F 12.4 °F 21.2 °F 93% 30.01 in 8.0 mi West 10.4 mph - N/A   Clear
6:10 AM 23.0 °F 13.9 °F 21.2 °F 93% 30.01 in 8.0 mi West 8.1 mph - N/A   Clear
6:30 AM 23.0 °F 13.9 °F 19.4 °F 86% 30.02 in 9.0 mi West 8.1 mph - N/A   Clear
6:50 AM 21.2 °F 10.9 °F 19.4 °F 93% 30.02 in 9.0 mi West 9.2 mph - N/A   Clear
7:10 AM 19.4 °F 7.9 °F 17.6 °F 93% 30.03 in 8.0 mi West 10.4 mph - N/A   Clear
7:30 AM 19.4 °F 7.9 °F 19.4 °F 100% 30.03 in 7.0 mi West 10.4 mph - N/A   Clear
7:50 AM 19.4 °F 8.6 °F 17.6 °F 93% 30.02 in 7.0 mi WSW 9.2 mph - N/A   Clear
8:10 AM 19.4 °F 7.2 °F 17.6 °F 93% 30.03 in 7.0 mi WSW 11.5 mph - N/A   Clear
8:30 AM 23.0 °F 11.7 °F 19.4 °F 86% 30.03 in 7.0 mi WSW 11.5 mph - N/A   Clear
8:50 AM 23.0 °F 13.9 °F 19.4 °F 86% 30.04 in 8.0 mi WSW 8.1 mph - N/A   Clear
9:10 AM 23.0 °F 14.7 °F 19.4 °F 86% 30.04 in 9.0 mi WSW 6.9 mph - N/A   Clear
9:30 AM 24.8 °F 16.9 °F 23.0 °F 93% 30.04 in 9.0 mi WSW 6.9 mph - N/A   Clear
9:50 AM 26.6 °F 15.7 °F 23.0 °F 86% 30.04 in 9.0 mi West 12.7 mph - N/A   Clear
10:10 AM 28.4 °F 19.1 °F 23.0 °F 80% 30.04 in 10.0 mi West 10.4 mph - N/A   Clear
10:30 AM 30.2 °F 22.6 °F 24.8 °F 80% 30.04 in 10.0 mi WSW 8.1 mph - N/A   Clear
10:50 AM 32.0 °F 23.0 °F 24.8 °F 75% 30.04 in 10.0 mi West 11.5 mph - N/A   Clear
11:10 AM 32.0 °F 22.1 °F 24.8 °F 75% 30.04 in 10.0 mi West 13.8 mph - N/A   Clear
11:30 AM 32.0 °F 23.0 °F 26.6 °F 80% 30.05 in 10.0 mi West 11.5 mph - N/A   Clear
11:50 AM 33.8 °F 25.8 °F 28.4 °F 81% 30.04 in 10.0 mi West 10.4 mph - N/A   Clear
12:10 PM 33.8 °F 24.3 °F 28.4 °F 81% 30.03 in 10.0 mi WSW 13.8 mph - N/A   Clear
12:30 PM 35.6 °F 27.5 °F 28.4 °F 75% 30.02 in 10.0 mi WSW 11.5 mph - N/A   Clear
12:50 PM 35.6 °F 27.1 °F 28.4 °F 75% 30.01 in 10.0 mi WSW 12.7 mph - N/A   Clear
1:10 PM 35.6 °F 27.1 °F 28.4 °F 75% 30.00 in 10.0 mi West 12.7 mph - N/A   Clear
1:30 PM 37.4 °F 29.3 °F 28.4 °F 70% 29.99 in 10.0 mi WSW 12.7 mph - N/A   Clear
1:50 PM 37.4 °F 29.8 °F 28.4 °F 70% 29.99 in 10.0 mi WSW 11.5 mph - N/A   Clear
2:10 PM 37.4 °F 30.8 °F 30.2 °F 75% 29.98 in 10.0 mi WSW 9.2 mph - N/A   Clear
2:30 PM 39.2 °F 33.6 °F 32.0 °F 75% 29.98 in 10.0 mi WSW 8.1 mph - N/A   Clear
2:50 PM 39.2 °F 31.6 °F 30.2 °F 70% 29.97 in 10.0 mi WSW 12.7 mph - N/A   Clear
3:10 PM 39.2 °F 32.5 °F 30.2 °F 70% 29.97 in 10.0 mi WSW 10.4 mph - N/A   Clear
3:30 PM 41.0 °F 35.2 °F 32.0 °F 70% 29.96 in 10.0 mi WSW 9.2 mph - N/A   Clear
3:50 PM 41.0 °F 35.2 °F 32.0 °F 70% 29.96 in 10.0 mi WSW 9.2 mph - N/A   Clear
4:10 PM 41.0 °F 35.8 °F 32.0 °F 70% 29.95 in 10.0 mi WSW 8.1 mph - N/A   Clear
4:30 PM 42.8 °F 37.5 °F 32.0 °F 66% 29.94 in 10.0 mi WSW 9.2 mph - N/A   Clear
4:50 PM 44.6 °F 39.2 °F 32.0 °F 61% 29.94 in 10.0 mi WSW 10.4 mph - N/A   Clear
5:10 PM 44.6 °F 39.7 °F 32.0 °F 61% 29.94 in 10.0 mi WSW 9.2 mph - N/A   Clear
5:30 PM 41.0 °F 35.8 °F 30.2 °F 65% 29.95 in 10.0 mi WSW 8.1 mph - N/A   Clear
5:50 PM 41.0 °F 36.4 °F 30.2 °F 65% 29.95 in 10.0 mi WSW 6.9 mph - N/A   Clear
6:10 PM 39.2 °F 33.6 °F 28.4 °F 65% 29.95 in 10.0 mi WSW 8.1 mph - N/A   Clear
6:30 PM 39.2 °F 33.6 °F 28.4 °F 65% 29.95 in 10.0 mi WSW 8.1 mph - N/A   Clear
6:50 PM 35.6 °F 29.2 °F 28.4 °F 75% 29.95 in 10.0 mi SW 8.1 mph - N/A   Clear
7:10 PM 35.6 °F 28.6 °F 26.6 °F 70% 29.95 in 10.0 mi WSW 9.2 mph - N/A   Clear
7:30 PM 35.6 °F 27.5 °F 28.4 °F 75% 29.95 in 10.0 mi WSW 11.5 mph - N/A   Clear
7:50 PM 35.6 °F 28.6 °F 26.6 °F 70% 29.95 in 10.0 mi WSW 9.2 mph - N/A   Clear
8:10 PM 35.6 °F 28.0 °F 26.6 °F 70% 29.95 in 10.0 mi WSW 10.4 mph - N/A   Clear
8:30 PM 33.8 °F 26.4 °F 26.6 °F 75% 29.95 in 10.0 mi WSW 9.2 mph - N/A   Clear
8:50 PM 33.8 °F 24.8 °F 26.6 °F 75% 29.95 in 10.0 mi WSW 12.7 mph - N/A   Clear
9:10 PM 35.6 °F 26.6 °F 26.6 °F 70% 29.96 in 10.0 mi WSW 13.8 mph - N/A   Partly Cloudy
9:30 PM 35.6 °F 26.6 °F 26.6 °F 70% 29.96 in 10.0 mi WSW 13.8 mph - N/A   Partly Cloudy
9:50 PM 35.6 °F 27.5 °F 26.6 °F 70% 29.96 in 10.0 mi WSW 11.5 mph - N/A   Scattered Clouds
10:10 PM 32.0 °F 25.6 °F 26.6 °F 80% 29.97 in 10.0 mi West 6.9 mph - N/A   Partly Cloudy
10:30 PM 32.0 °F 24.8 °F 24.8 °F 75% 29.96 in 10.0 mi West 8.1 mph - N/A   Clear
10:50 PM 33.8 °F 26.4 °F 24.8 °F 70% 29.96 in 10.0 mi WSW 9.2 mph - N/A   Clear
11:10 PM 32.0 °F 24.8 °F 24.8 °F 75% 29.97 in 10.0 mi West 8.1 mph - N/A   Clear
11:50 PM 33.8 °F 27.0 °F 26.6 °F 75% 29.97 in 10.0 mi WNW 8.1 mph - N/A   Clear